Regional Weather Roundup
Issued by NWS Sioux Falls, SD

Home | Current Version | Previous Version | Graphics & Text | Print | Product List | Glossary On
Versions: 1 2 3 4 5 6 7 8 9 10 11 12 13 14 15 16 17 18 19 20 21 22 23 24 25 26 27 28 29 30 31 32 33 34 35 36 37 38 39 40 41 42 43 44 45 46 47 48 49 50
000
ASUS43 KFSD 061310
RWRFSD

WEATHER ROUNDUP FOR SE SOUTH DAKOTA/SW MINNESOTA/NW IOWA
NATIONAL WEATHER SERVICE SIOUX FALLS SD
800 AM CDT FRI MAY 06 2016

NOTE: "FAIR" INDICATES FEW OR NO CLOUDS BELOW 12,000 FEET WITH NO
SIGNIFICANT WEATHER AND OR OBSTRUCTIONS TO VISIBILITY.


SDZ038>040-050-052>070-061400-
SOUTHEAST SOUTH DAKOTA

CITY           SKY/WX    TMP DP  RH WIND       PRES   REMARKS
CHAMBERLAIN    SUNNY     65  54  67 SW9       29.87R
HURON          SUNNY     63  51  65 S12G21    29.82R
MADISON        FAIR      64  46  52 SW18      29.89R
MITCHELL       NOT AVBL
SIOUX FALLS    NOT AVBL
$$

MNZ071-072-080-081-089-090-097-098-061400-
SOUTHWEST MINNESOTA

CITY           SKY/WX    TMP DP  RH WIND       PRES   REMARKS
JACKSON        SUNNY     61  41  48 SW12      29.94S
LUVERNE        SUNNY     55  43  62 S3        29.92F
MARSHALL       NOT AVBL
MONTEVIDEO     SUNNY     66  48  52 SW9       29.84S
PIPESTONE      PTSUNNY   61  46  59 SW9       29.91R
TRACY          MOSUNNY   67  46  48 SW21G26   29.87F
WINDOM         SUNNY     63  45  51 SW14      29.91F
$$

IAZ001>003-012>014-020>022-031-032-NEZ013-014-SDZ071-061400-
NORTHWEST IOWA

CITY           SKY/WX    TMP DP  RH WIND       PRES   REMARKS
CHEROKEE       SUNNY     56  48  72 S5        29.98S
DENISON        SUNNY     57  46  67 SW5       29.99R
LE MARS        SUNNY     57  46  67 CALM      29.99R
ORANGE CITY    SUNNY     57  46  67 S12       29.96F
SHELDON        SUNNY     59  45  58 S12       29.94F
SIOUX CITY     NOT AVBL
SPENCER        NOT AVBL
STORM LAKE     SUNNY     61  45  55 SW12      29.99S
$$

ABBREVIATIONS USED IN REMARKS
   TC - TEMPERATURE IN CELSIUS
  WCI - WIND CHILL INDEX
   HX - HEAT INDEX
  VSB - VISIBILITY





USA.gov is the U.S. government's official web portal to all federal, state and local government web resources and services.